Date String (YYYY-MM-DD hh:mm:ss) UTC,Instrument flags,Ambient pressure (hPa),Sample flow (lpm),Bypass flow (lpm),Sample temperature (°C),Ambient temperature (°C),ASC tube jacket temperature (°C),LED temperature (°C),Box temperature (°C),Sample RH (%),Span deviation,Mass concentration (μg/m³),Mass concentration (μg/m³),Mass concentration (μg/m³)
DateTimeUTC,F1_M11,P_M11,Q1_M11,Q2_M11,T1_M11,T2_M11,T3_M11,T4_M11,T5_M11,U1_M11,ZSPAN_M11,X0_M11,X2_M11,X1_M11
2023-02-26 19:00:00,,0808.3,5.01,0.00,24.3,23.1,00.0,32.9,26.2,15.9,0000.0,0014.27,0007.77,0006.70
2023-02-26 19:01:00,,0808.2,5.01,0.00,24.3,23.1,00.0,32.9,26.2,16.1,0000.0,0014.68,0007.72,0006.67
2023-02-26 19:02:00,,0808.2,5.00,0.00,24.3,23.1,00.0,32.9,26.2,16.0,0000.0,0015.07,0007.70,0006.64
2023-02-26 19:03:00,,0808.1,5.00,0.00,24.3,23.1,00.0,32.9,26.2,16.4,0000.0,0015.39,0007.70,0006.63
2023-02-26 19:04:00,,0808.1,5.00,0.00,24.3,23.1,00.0,32.9,26.3,16.1,0000.0,0015.49,0007.70,0006.61
2023-02-26 19:05:00,,0808.1,5.00,0.00,24.3,23.1,00.0,32.9,26.3,15.9,0000.0,0015.59,0007.71,0006.61
2023-02-26 19:06:00,,0808.1,5.00,0.00,24.3,23.1,00.0,32.9,26.3,15.8,0000.0,0015.60,0007.73,0006.61
2023-02-26 19:07:00,,0808.1,4.98,0.00,24.4,23.1,00.0,32.9,26.3,15.9,0000.3,0014.88,0007.71,0006.62
2023-02-26 19:08:00,,0808.1,5.01,0.00,24.4,23.2,00.0,33.0,26.3,16.1,0000.0,0015.26,0007.75,0006.65
2023-02-26 19:09:00,,0808.0,5.00,0.00,24.4,23.2,00.0,33.0,26.3,16.4,0000.0,0015.19,0007.80,0006.67
2023-02-26 19:10:00,,0808.0,5.01,0.00,24.4,23.2,00.0,33.0,26.3,16.4,0000.0,0014.67,0007.79,0006.68
2023-02-26 19:11:00,,0807.8,5.02,0.00,24.4,23.2,00.0,33.0,26.3,15.9,0000.0,0014.70,0007.81,0006.72
2023-02-26 19:12:00,,0807.9,4.99,0.00,24.4,23.2,00.0,33.0,26.3,16.7,0000.0,0014.61,0007.82,0006.76
2023-02-26 19:13:00,,0807.7,5.00,0.00,24.4,23.2,00.0,33.0,26.3,16.5,0000.0,0014.57,0007.87,0006.81
2023-02-26 19:14:00,,0807.7,5.00,0.00,24.4,23.2,00.0,33.0,26.3,16.0,0000.0,0014.16,0007.95,0006.87
2023-02-26 19:15:00,,0807.6,5.00,0.00,24.4,23.2,00.0,33.0,26.3,16.0,0000.0,0014.75,0008.05,0006.95
2023-02-26 19:16:00,,0807.7,5.00,0.00,24.4,23.2,00.0,33.0,26.3,16.1,0000.0,0015.76,0008.16,0007.03
2023-02-26 19:17:00,,0807.7,5.00,0.00,24.4,23.2,00.0,33.0,26.3,15.8,0000.0,0016.36,0008.18,0007.10
2023-02-26 19:18:00,,0807.7,5.00,0.00,24.4,23.2,00.0,33.0,26.4,15.9,0000.0,0016.52,0008.22,0007.17
2023-02-26 19:19:00,,0807.6,4.97,0.00,24.4,23.2,00.0,33.1,26.4,15.9,0000.0,0016.13,0008.27,0007.23
2023-02-26 19:20:00,,0807.6,5.00,0.00,24.5,23.3,00.0,33.1,26.4,16.2,0000.0,0016.03,0008.31,0007.30
2023-02-26 19:21:00,,0807.5,5.00,0.00,24.5,23.3,00.0,33.1,26.4,16.4,0000.0,0015.94,0008.33,0007.35
2023-02-26 19:22:00,,0807.5,5.01,0.00,24.5,23.3,00.0,33.1,26.4,16.8,0000.0,0015.85,0008.34,0007.40
2023-02-26 19:23:00,,0807.5,5.00,0.00,24.5,23.3,00.0,33.1,26.4,16.4,0000.0,0015.65,0008.40,0007.44
2023-02-26 19:24:00,,0807.4,4.99,0.00,24.5,23.3,00.0,33.1,26.4,16.5,0000.0,0015.43,0008.44,0007.49
2023-02-26 19:25:00,,0807.4,4.99,0.00,24.5,23.3,00.0,33.1,26.4,16.5,0000.0,0015.43,0008.39,0007.52
2023-02-26 19:26:00,,0807.5,5.00,0.00,24.5,23.3,00.0,33.1,26.4,16.5,0000.0,0014.97,0008.36,0007.55
2023-02-26 19:27:00,,0807.5,5.00,0.00,24.5,23.3,00.0,33.1,26.4,16.5,0000.0,0013.97,0008.35,0007.57
2023-02-26 19:28:00,,0807.5,5.01,0.00,24.5,23.3,00.0,33.2,26.4,16.7,0000.0,0013.12,0008.35,0007.61
2023-02-26 19:29:00,,0807.5,5.00,0.00,24.6,23.4,00.0,33.2,26.5,16.2,0000.0,0012.89,0008.36,0007.63
2023-02-26 19:30:00,,0807.5,5.00,0.00,24.6,23.4,00.0,33.2,26.5,16.3,0000.0,0012.38,0008.38,0007.66
2023-02-26 19:31:00,,0807.5,5.01,0.00,24.6,23.4,00.0,33.2,26.5,16.2,0000.0,0012.58,0008.39,0007.69
2023-02-26 19:32:00,,0807.4,5.01,0.00,24.6,23.4,00.0,33.2,26.5,16.5,0000.0,0012.69,0008.43,0007.74
2023-02-26 19:33:00,,0807.4,4.99,0.00,24.6,23.4,00.0,33.2,26.5,16.2,0000.0,0012.76,0008.48,0007.78
2023-02-26 19:34:00,,0807.4,5.00,0.00,24.6,23.5,00.0,33.2,26.5,16.1,0000.0,0013.37,0008.50,0007.81
2023-02-26 19:35:00,,0807.4,5.00,0.00,24.6,23.5,00.0,33.2,26.5,16.7,0000.0,0013.55,0008.54,0007.83
2023-02-26 19:36:00,,0807.3,5.00,0.00,24.7,23.5,00.0,33.3,26.6,16.8,0000.0,0013.26,0008.56,0007.85
2023-02-26 19:37:00,,0807.3,5.00,0.00,24.7,23.5,00.0,33.3,26.6,17.1,0000.0,0014.01,0008.62,0007.88
2023-02-26 19:38:00,,0807.3,4.99,0.00,24.7,23.6,00.0,33.3,26.6,16.7,0000.0,0014.41,0008.63,0007.90
2023-02-26 19:39:00,,0807.2,5.01,0.00,24.7,23.6,00.0,33.3,26.6,16.6,0000.0,0014.34,0008.60,0007.88
2023-02-26 19:40:00,,0807.3,4.99,0.00,24.7,23.6,00.0,33.3,26.6,16.4,0000.0,0014.55,0008.60,0007.85
2023-02-26 19:41:00,,0807.2,5.00,0.00,24.7,23.6,00.0,33.3,26.6,16.3,0000.0,0014.66,0008.59,0007.82
2023-02-26 19:42:00,,0807.2,4.98,0.00,24.7,23.6,00.0,33.3,26.6,16.3,0000.0,0014.48,0008.55,0007.79
2023-02-26 19:43:00,,0807.3,5.00,0.00,24.8,23.6,00.0,33.4,26.7,16.2,0000.0,0014.51,0008.50,0007.76
2023-02-26 19:44:00,,0807.3,5.00,0.00,24.8,23.6,00.0,33.4,26.7,16.6,0000.0,0014.92,0008.50,0007.73
2023-02-26 19:45:00,,0807.3,5.00,0.00,24.8,23.6,00.0,33.4,26.7,16.5,0000.0,0015.13,0008.55,0007.73
2023-02-26 19:46:00,,0807.2,5.01,0.00,24.8,23.7,00.0,33.4,26.7,16.5,0000.0,0015.01,0008.56,0007.74
2023-02-26 19:47:00,,0807.3,5.00,0.00,24.8,23.7,00.0,33.4,26.7,16.3,0000.0,0015.13,0008.58,0007.72
2023-02-26 19:48:00,,0807.3,5.00,0.00,24.8,23.7,00.0,33.4,26.7,16.2,0000.0,0014.78,0008.53,0007.70
2023-02-26 19:49:00,,0807.2,4.99,0.00,24.8,23.7,00.0,33.4,26.7,16.1,0000.0,0014.35,0008.51,0007.68
2023-02-26 19:50:00,,0807.1,5.00,0.00,24.9,23.7,00.0,33.5,26.7,16.1,0000.0,0014.39,0008.54,0007.70
2023-02-26 19:51:00,,0807.1,5.01,0.00,24.9,23.8,00.0,33.5,26.8,16.0,0000.0,0014.27,0008.55,0007.73
2023-02-26 19:52:00,,0807.1,5.01,0.00,24.9,23.8,00.0,33.5,26.8,16.5,0000.0,0014.47,0008.60,0007.77
2023-02-26 19:53:00,,0807.2,5.02,0.00,24.9,23.8,00.0,33.5,26.8,16.3,0000.0,0014.51,0008.66,0007.80
2023-02-26 19:54:00,,0807.2,5.00,0.00,24.9,23.8,00.0,33.5,26.8,16.0,0000.0,0014.58,0008.73,0007.83
2023-02-26 19:55:00,,0807.2,4.99,0.00,24.9,23.8,00.0,33.5,26.8,16.4,0000.0,0014.24,0008.75,0007.86
2023-02-26 19:56:00,,0807.1,5.00,0.00,24.9,23.8,00.0,33.5,26.8,16.5,0000.0,0013.53,0008.73,0007.87
2023-02-26 19:57:00,,0807.1,5.00,0.00,24.9,23.8,00.0,33.6,26.9,16.6,0000.0,0013.59,0008.76,0007.88
2023-02-26 19:58:00,,0807.1,5.00,0.00,25.0,23.8,00.0,33.6,26.9,16.3,0000.0,0013.59,0008.77,0007.90
2023-02-26 19:59:00,,0807.1,4.99,0.00,25.0,23.8,00.0,33.6,26.9,16.2,0000.0,0013.30,0008.83,0007.93
